Starlink 31159

operational
NORAD ID: 58740 Int'l Des: 2024-005 Owner: SPXS Country: US Constellation: starlink
LEOCIRCULAR

About Starlink 31159

Description loading...

Live Position

Loading 3D Globe...

Upcoming Passes

Altitude History

Altitude vs Time

uPlot chart will show altitude changes over time

Two-Line Element Set

1 58740U 24005N 25257.28059517 .00000964 00000-0 86414-4 0 9999
2 58740 43.0030 100.2995 0001103 268.0158 92.0558 15.02535678 93976
Epoch: Sep 14, 2025 • Age: 28 hours

Current Status

Altitude 571.6 km
Velocity 7.58 km/s
Sub-Earth Point -42.92°S, 163.56°W
Launch Date Jan 7, 2024
Age 1.6 years
Type internet

Technical Details

Classification Payload
Mass 730.00 kg
Dry Mass 700.00 kg
Total Mass 730.00 kg
Length 0.30 m
Diameter 4.10 m
Span 29.00 m
Shape Box + pan
Manufacturer SPXS
Bus Type Starlink V2M
Phase Status In Orbit
Owner/State SPXS/US

Large Constellations

Loading constellations...